Overview Statistics Trail Chart Weather Telemetry Raw packets
 

This is the latest recevied weather packets stored in our database for station/object K5SVV. If no packets are shown the sender has not sent any weather packets the latest 10 day(s).

<< 68 69 70 71 72 73 74 >>
Time Temp. Humidity Pressure Rain* Wind** Luminosity Snow
1788198186 36.11° C 43% 1016.7 hPa 0 mm - 744 W/m² -
1788197885 35.56° C 44% 1016.6 hPa 0 mm - 735 W/m² -
1788197579 35.56° C 46% 1016.7 hPa 0 mm - 752 W/m² -
1788197274 35.56° C 45% 1017 hPa 0 mm - 753 W/m² -
1788196969 35.56° C 45% 1016.6 hPa 0 mm - 756 W/m² -
1788196664 35° C 47% 1016.7 hPa 0 mm - 734 W/m² -
1788196362 35° C 47% 1017.1 hPa 0 mm - 725 W/m² -
1788196058 34.44° C 47% 1016.9 hPa 0 mm - 747 W/m² -
1788195754 34.44° C 49% 1017 hPa 0 mm - 736 W/m² -
1788195450 34.44° C 48% 1017 hPa 0 mm - 744 W/m² -
1788195146 34.44° C 48% 1016.9 hPa 0 mm - 755 W/m² -
1788194842 33.89° C 51% 1016.9 hPa 0 mm - 773 W/m² -
1788194538 33.33° C 53% 1017.1 hPa 0 mm - 753 W/m² -
1788194233 33.33° C 53% 1017.2 hPa 0 mm - 747 W/m² -
1788193929 33.33° C 52% 1017.1 hPa 0 mm - 684 W/m² -
1788193627 32.78° C 52% 1017 hPa 0 mm - 688 W/m² -
1788193327 32.78° C 52% 1016.9 hPa 0 mm - 675 W/m² -
1788193021 33.33° C 53% 1017 hPa 0 mm - 704 W/m² -
1788192718 32.78° C 53% 1017 hPa 0 mm - 734 W/m² -
1788192417 32.78° C 54% 1017.1 hPa 0 mm - 718 W/m² -
1788192112 32.22° C 54% 1017.1 hPa 0 mm - 730 W/m² -
1788191812 32.78° C 55% 1017.2 hPa 0 mm - 730 W/m² -
1788191508 31.67° C 56% 1017.2 hPa 0 mm - 676 W/m² -
1788191203 31.67° C 58% 1017.2 hPa 0 mm - 674 W/m² -
1788190898 31.67° C 59% 1017.2 hPa 0 mm - 668 W/m² -

* Rain latest hour (hover to see other rain measurements)
** Current wind speed in m/s (hover to see current wind gust speed)